QTR9H YSSY-OTHH

Flight info

Callsign QTR9H
Flight time N/A
Altitude 36000
Route TESAT A576 PKS J141 LEC T21 NONAX/N0494F380 T21 PD N509 MUTMI/N0487F400 N509 ELATI N640 KAT P570 LADIB/N0483F430 P570 EMURU N563 SODEX/N0510F340 N563 UMIBU P899 TOVOX
Aircraft A359/H-SDE2E3GHIJ3J4J5LM1ORWXY/LB1D1

Departure

Time 2026-05-06 23:57
Airport Sydney Kingsford Smith International Airport (YSSY)

Arrival

Time N/A
Airport Hamad International Airport (OTHH)
Time Latitude Longitude Altitude Speed Heading
2026-05-06 23:32 -33.93832 151.16835 27 ft 0 kts 70°
2026-05-06 23:41 -33.93835 151.16826 26 ft 3 kts 70°
2026-05-06 23:41 -33.93841 151.16803 27 ft 3 kts 70°
2026-05-06 23:42 -33.93847 151.16783 26 ft 1 kts 71°
2026-05-06 23:42 -33.93852 151.16764 24 ft 3 kts 96°
2026-05-06 23:42 -33.93846 151.16747 25 ft 3 kts 148°
2026-05-06 23:42 -33.93829 151.16738 25 ft 3 kts 165°
2026-05-06 23:43 -33.93817 151.16734 26 ft 1 kts 164°
2026-05-06 23:43 -33.93814 151.16733 25 ft 0 kts 164°
2026-05-06 23:47 -33.93818 151.16734 26 ft 3 kts 164°
2026-05-06 23:47 -33.93856 151.16747 26 ft 6 kts 163°
2026-05-06 23:47 -33.93901 151.16763 27 ft 7 kts 164°
2026-05-06 23:47 -33.93953 151.16780 27 ft 8 kts 164°
2026-05-06 23:48 -33.94012 151.16801 27 ft 9 kts 162°
2026-05-06 23:48 -33.94046 151.16855 27 ft 9 kts 103°
2026-05-06 23:48 -33.94042 151.16927 27 ft 9 kts 79°
2026-05-06 23:48 -33.94023 151.17007 27 ft 10 kts 71°
2026-05-06 23:49 -33.94002 151.17091 26 ft 11 kts 74°
2026-05-06 23:49 -33.93988 151.17188 29 ft 12 kts 101°
2026-05-06 23:49 -33.94045 151.17244 27 ft 10 kts 159°
2026-05-06 23:49 -33.94111 151.17261 28 ft 10 kts 168°
2026-05-06 23:50 -33.94182 151.17279 27 ft 11 kts 168°
2026-05-06 23:50 -33.94330 151.17316 31 ft 10 kts 169°
2026-05-06 23:50 -33.94395 151.17332 32 ft 11 kts 168°
2026-05-06 23:51 -33.94495 151.17358 32 ft 16 kts 167°
2026-05-06 23:51 -33.94606 151.17388 32 ft 17 kts 167°
2026-05-06 23:51 -33.94723 151.17419 31 ft 18 kts 167°
2026-05-06 23:51 -33.94856 151.17453 25 ft 21 kts 168°
2026-05-06 23:52 -33.95004 151.17492 25 ft 22 kts 168°
2026-05-06 23:52 -33.95154 151.17530 28 ft 23 kts 167°
2026-05-06 23:52 -33.95313 151.17573 27 ft 23 kts 167°
2026-05-06 23:52 -33.95469 151.17614 26 ft 23 kts 168°
2026-05-06 23:53 -33.95621 151.17653 29 ft 22 kts 168°
2026-05-06 23:53 -33.95764 151.17689 31 ft 21 kts 167°
2026-05-06 23:53 -33.95914 151.17729 28 ft 23 kts 167°
2026-05-06 23:53 -33.96067 151.17769 31 ft 22 kts 168°
2026-05-06 23:54 -33.96217 151.17807 29 ft 23 kts 168°
2026-05-06 23:54 -33.96370 151.17846 29 ft 21 kts 167°
2026-05-06 23:54 -33.96434 151.17916 30 ft 0 kts 107°
2026-05-06 23:54 -33.96435 151.17918 30 ft 3 kts 106°
2026-05-06 23:55 -33.96435 151.17962 30 ft 6 kts 85°
2026-05-06 23:55 -33.96426 151.18015 30 ft 7 kts 72°
2026-05-06 23:55 -33.96395 151.18046 30 ft 6 kts 19°
2026-05-06 23:55 -33.96354 151.18045 30 ft 6 kts 348°
2026-05-06 23:56 -33.96295 151.18029 29 ft 18 kts 348°
2026-05-06 23:56 -33.95972 151.17946 27 ft 75 kts 347°
2026-05-06 23:56 -33.95297 151.17772 30 ft 123 kts 347°
2026-05-06 23:56 -33.94313 151.17516 35 ft 164 kts 346°
2026-05-06 23:57 -33.93220 151.17227 671 ft 152 kts 342°
2026-05-06 23:57 -33.92155 151.16940 952 ft 170 kts 342°
2026-05-06 23:57 -33.90924 151.16653 1172 ft 194 kts 348°
2026-05-06 23:57 -33.89561 151.17197 1282 ft 225 kts 37°
2026-05-06 23:58 -33.88780 151.18838 1696 ft 234 kts 80°
2026-05-06 23:58 -33.89046 151.20718 2204 ft 229 kts 122°
2026-05-06 23:58 -33.90198 151.21942 2634 ft 220 kts 165°
2026-05-06 23:58 -33.91683 151.21986 2855 ft 219 kts 205°
2026-05-06 23:59 -33.92885 151.20845 3096 ft 227 kts 234°
2026-05-06 23:59 -33.93660 151.19182 3660 ft 228 kts 252°
2026-05-06 23:59 -33.93915 151.17302 4311 ft 229 kts 270°
2026-05-06 23:59 -33.93694 151.15394 4916 ft 232 kts 280°
2026-05-07 00:00 -33.93287 151.13502 5485 ft 234 kts 284°
2026-05-07 00:00 -33.92790 151.11616 6122 ft 237 kts 286°
2026-05-07 00:00 -33.92259 151.09729 6764 ft 238 kts 287°
2026-05-07 00:00 -33.91904 151.08476 7203 ft 238 kts 287°
2026-05-07 00:01 -33.91197 151.05939 8074 ft 240 kts 288°
2026-05-07 00:01 -33.90677 151.04015 8723 ft 242 kts 288°
2026-05-07 00:01 -33.90171 151.02111 9614 ft 236 kts 288°
2026-05-07 00:01 -33.89676 151.00228 10248 ft 240 kts 288°
2026-05-07 00:02 -33.89159 150.98252 10535 ft 255 kts 288°
2026-05-07 00:02 -33.88609 150.96150 10804 ft 271 kts 288°
2026-05-07 00:02 -33.88034 150.93952 11067 ft 286 kts 289°
2026-05-07 00:02 -33.87420 150.91607 11346 ft 301 kts 289°
2026-05-07 00:03 -33.86775 150.89151 11589 ft 314 kts 289°
2026-05-07 00:03 -33.86104 150.86593 11917 ft 324 kts 289°
2026-05-07 00:03 -33.85424 150.84001 12463 ft 327 kts 289°
2026-05-07 00:03 -33.84739 150.81388 13081 ft 328 kts 289°
2026-05-07 00:04 -33.84048 150.78757 13672 ft 331 kts 289°
2026-05-07 00:04 -33.83352 150.76112 14223 ft 333 kts 289°
2026-05-07 00:04 -33.82650 150.73453 14803 ft 333 kts 289°
2026-05-07 00:04 -33.81947 150.70793 15435 ft 333 kts 289°
2026-05-07 00:05 -33.81234 150.68094 15955 ft 336 kts 289°
2026-05-07 00:05 -33.80530 150.65437 16453 ft 339 kts 289°
2026-05-07 00:05 -33.79813 150.62729 16966 ft 342 kts 289°
2026-05-07 00:05 -33.79089 150.60002 17482 ft 344 kts 289°
2026-05-07 00:06 -33.78363 150.57266 18085 ft 344 kts 289°
2026-05-07 00:06 -33.77630 150.54502 18589 ft 347 kts 289°
2026-05-07 00:06 -33.76903 150.51769 19013 ft 350 kts 289°
2026-05-07 00:06 -33.76161 150.48975 19452 ft 353 kts 289°
2026-05-07 00:07 -33.75408 150.46152 19917 ft 356 kts 289°
2026-05-07 00:07 -33.74653 150.43318 20415 ft 356 kts 289°
2026-05-07 00:07 -33.73893 150.40469 20920 ft 359 kts 289°
2026-05-07 00:07 -33.73125 150.37600 21359 ft 362 kts 289°
2026-05-07 00:08 -33.72351 150.34707 21803 ft 365 kts 289°
2026-05-07 00:08 -33.71570 150.31793 22267 ft 367 kts 289°
2026-05-07 00:08 -33.70782 150.28856 22746 ft 370 kts 289°
2026-05-07 00:08 -33.69990 150.25902 23214 ft 373 kts 290°
2026-05-07 00:09 -33.69186 150.22930 23650 ft 376 kts 290°
2026-05-07 00:09 -33.68372 150.19946 24033 ft 378 kts 290°
2026-05-07 00:09 -33.67549 150.16937 24511 ft 379 kts 290°
2026-05-07 00:09 -33.66729 150.13943 25108 ft 375 kts 290°
2026-05-07 00:10 -33.65926 150.11003 25543 ft 376 kts 290°
2026-05-07 00:10 -33.65104 150.07996 25907 ft 379 kts 290°
2026-05-07 00:10 -33.64550 150.05969 26128 ft 381 kts 290°
2026-05-07 00:10 -33.63452 150.01956 26624 ft 383 kts 290°
2026-05-07 00:11 -33.62616 149.98903 26992 ft 385 kts 290°
2026-05-07 00:11 -33.61776 149.95839 27382 ft 387 kts 290°
2026-05-07 00:11 -33.60934 149.92770 27798 ft 388 kts 290°
2026-05-07 00:11 -33.60373 149.90728 28022 ft 389 kts 290°
2026-05-07 00:12 -33.59526 149.87651 28398 ft 391 kts 289°
2026-05-07 00:12 -33.58669 149.84547 28900 ft 389 kts 289°
2026-05-07 00:12 -33.57819 149.81459 29270 ft 390 kts 289°
2026-05-07 00:12 -33.56968 149.78367 29551 ft 393 kts 289°
2026-05-07 00:13 -33.56109 149.75250 29927 ft 392 kts 289°
2026-05-07 00:13 -33.55254 149.72151 30386 ft 390 kts 289°
2026-05-07 00:13 -33.54404 149.69071 30684 ft 390 kts 289°
2026-05-07 00:13 -33.53546 149.65970 30920 ft 391 kts 289°
2026-05-07 00:14 -33.52690 149.62882 31181 ft 392 kts 289°
2026-05-07 00:14 -33.51833 149.59796 31458 ft 392 kts 288°
2026-05-07 00:14 -33.50971 149.56694 31776 ft 391 kts 288°
2026-05-07 00:14 -33.50109 149.53595 32052 ft 392 kts 288°
2026-05-07 00:15 -33.49247 149.50502 32264 ft 392 kts 288°
2026-05-07 00:15 -33.48384 149.47408 32524 ft 392 kts 288°
2026-05-07 00:15 -33.47517 149.44304 32774 ft 392 kts 288°
2026-05-07 00:15 -33.46650 149.41202 32992 ft 392 kts 288°
2026-05-07 00:16 -33.45782 149.38099 33216 ft 393 kts 288°
2026-05-07 00:16 -33.44913 149.34994 33437 ft 393 kts 288°
2026-05-07 00:16 -33.44042 149.31887 33639 ft 394 kts 288°
2026-05-07 00:16 -33.43170 149.28781 33878 ft 394 kts 287°
2026-05-07 00:17 -33.42299 149.25681 34092 ft 394 kts 287°
2026-05-07 00:17 -33.41425 149.22574 34278 ft 394 kts 287°
2026-05-07 00:17 -33.40547 149.19455 34416 ft 395 kts 287°
2026-05-07 00:17 -33.39667 149.16332 34558 ft 396 kts 287°
2026-05-07 00:18 -33.38785 149.13206 34695 ft 396 kts 287°
2026-05-07 00:18 -33.37901 149.10077 34834 ft 397 kts 287°
2026-05-07 00:18 -33.37015 149.06945 34978 ft 398 kts 287°
2026-05-07 00:18 -33.36138 149.03848 35101 ft 398 kts 287°
2026-05-07 00:19 -33.35249 149.00714 35293 ft 397 kts 287°
2026-05-07 00:19 -33.34363 148.97592 35425 ft 398 kts 287°
2026-05-07 00:19 -33.33472 148.94455 35544 ft 399 kts 287°
2026-05-07 00:19 -33.32579 148.91314 35676 ft 399 kts 287°
2026-05-07 00:20 -33.31683 148.88166 35798 ft 400 kts 287°
2026-05-07 00:20 -33.30788 148.85022 35915 ft 401 kts 287°
2026-05-07 00:20 -33.29887 148.81864 36017 ft 401 kts 287°
2026-05-07 00:20 -33.28982 148.78697 36139 ft 402 kts 287°
2026-05-07 00:21 -33.27166 148.72343 36217 ft 406 kts 287°
2026-05-07 00:21 -33.25331 148.65942 36221 ft 407 kts 287°
2026-05-07 00:22 -33.23496 148.59557 36222 ft 406 kts 287°
2026-05-07 00:22 -33.21667 148.53209 36227 ft 406 kts 287°
2026-05-07 00:23 -33.19824 148.46824 36223 ft 406 kts 287°
2026-05-07 00:23 -33.17987 148.40472 36235 ft 404 kts 287°
2026-05-07 00:24 -33.16151 148.34137 36240 ft 403 kts 287°
2026-05-07 00:24 -33.14311 148.27801 36239 ft 403 kts 287°
2026-05-07 00:25 -33.12492 148.21458 36248 ft 403 kts 285°
2026-05-07 00:25 -33.11088 148.15007 36249 ft 401 kts 282°
2026-05-07 00:26 -33.09828 148.08572 36251 ft 401 kts 282°
2026-05-07 00:26 -33.08501 148.02110 36259 ft 401 kts 282°
2026-05-07 00:27 -33.07126 147.95678 36260 ft 401 kts 283°
2026-05-07 00:27 -33.05733 147.89244 36251 ft 401 kts 283°
2026-05-07 00:28 -33.04335 147.82799 36259 ft 401 kts 283°
2026-05-07 00:28 -33.02939 147.76365 36266 ft 401 kts 283°
2026-05-07 00:29 -33.01539 147.69930 36256 ft 401 kts 283°
2026-05-07 00:30 -32.98727 147.57052 36274 ft 402 kts 283°
2026-05-07 00:30 -32.97323 147.50649 36271 ft 402 kts 283°
2026-05-07 00:31 -32.95904 147.44198 36279 ft 402 kts 283°
2026-05-07 00:31 -32.94484 147.37754 36251 ft 402 kts 283°
2026-05-07 00:32 -32.93060 147.31314 36280 ft 403 kts 283°
2026-05-07 00:32 -32.91627 147.24848 36284 ft 404 kts 283°
2026-05-07 00:33 -32.90191 147.18384 36287 ft 404 kts 283°
2026-05-07 00:33 -32.88751 147.11923 36292 ft 404 kts 283°
2026-05-07 00:34 -32.87315 147.05498 36292 ft 406 kts 283°
2026-05-07 00:34 -32.85862 146.99004 36292 ft 407 kts 283°
2026-05-07 00:35 -32.84401 146.92498 36298 ft 407 kts 283°
2026-05-07 00:35 -32.82939 146.86005 36297 ft 407 kts 283°
2026-05-07 00:36 -32.81478 146.79536 36300 ft 408 kts 283°
2026-05-07 00:36 -32.79997 146.72985 36303 ft 410 kts 283°
2026-05-07 00:37 -32.78510 146.66434 36305 ft 410 kts 283°
2026-05-07 00:37 -32.77020 146.59887 36309 ft 410 kts 283°
2026-05-07 00:38 -32.75529 146.53352 36308 ft 410 kts 283°
2026-05-07 00:38 -32.74029 146.46790 36314 ft 410 kts 283°
2026-05-07 00:39 -32.72533 146.40268 36314 ft 411 kts 283°
2026-05-07 00:39 -32.71029 146.33726 36317 ft 411 kts 283°
2026-05-07 00:40 -32.69519 146.27175 36317 ft 412 kts 283°
2026-05-07 00:40 -32.68002 146.20610 36318 ft 413 kts 283°
2026-05-07 00:41 -32.66479 146.14036 36324 ft 413 kts 283°
2026-05-07 00:41 -32.64951 146.07460 36324 ft 413 kts 283°
2026-05-07 00:42 -32.63419 146.00885 36319 ft 414 kts 283°
2026-05-07 00:42 -32.61879 145.94284 36327 ft 417 kts 283°
2026-05-07 00:43 -32.60326 145.87649 36333 ft 417 kts 283°
2026-05-07 00:43 -32.58769 145.81020 36333 ft 417 kts 283°
2026-05-07 00:44 -32.57210 145.74394 36330 ft 418 kts 283°
2026-05-07 00:44 -32.55645 145.67761 36339 ft 418 kts 283°
2026-05-07 00:45 -32.54084 145.61161 36333 ft 418 kts 283°
2026-05-07 00:45 -32.52500 145.54483 36374 ft 418 kts 283°
2026-05-07 00:46 -32.50924 145.47854 36345 ft 423 kts 283°
2026-05-07 00:46 -32.49316 145.41101 36344 ft 428 kts 283°
2026-05-07 00:47 -32.47696 145.34322 36345 ft 427 kts 283°
2026-05-07 00:47 -32.46075 145.27563 36343 ft 427 kts 283°
2026-05-07 00:48 -32.44451 145.20800 36347 ft 428 kts 283°
2026-05-07 00:48 -32.42817 145.14016 36363 ft 428 kts 283°
2026-05-07 00:49 -32.41180 145.07238 36355 ft 428 kts 283°
2026-05-07 00:49 -32.39537 145.00454 36334 ft 428 kts 283°
2026-05-07 00:50 -32.37899 144.93703 36359 ft 430 kts 283°
2026-05-07 00:50 -32.36242 144.86893 36360 ft 431 kts 283°
2026-05-07 00:51 -32.34580 144.80083 36361 ft 431 kts 283°
2026-05-07 00:51 -32.32913 144.73267 36355 ft 431 kts 283°
2026-05-07 00:52 -32.31244 144.66460 36363 ft 431 kts 283°
2026-05-07 00:52 -32.29570 144.59652 36365 ft 431 kts 283°
2026-05-07 00:53 -32.27892 144.52844 36371 ft 431 kts 283°
2026-05-07 00:53 -32.26220 144.46078 36374 ft 432 kts 283°
2026-05-07 00:54 -32.24532 144.39264 36373 ft 432 kts 283°
2026-05-07 00:54 -32.22840 144.32451 36374 ft 432 kts 283°
2026-05-07 00:55 -32.21431 144.26792 36370 ft 432 kts 283°
2026-05-07 00:55 -32.19455 144.18874 36376 ft 432 kts 284°
2026-05-07 00:56 -32.17753 144.12071 36382 ft 433 kts 284°
2026-05-07 00:56 -32.16319 144.06355 36382 ft 433 kts 284°
2026-05-07 00:57 -32.14606 143.99543 36384 ft 433 kts 284°
2026-05-07 00:57 -32.12890 143.92735 36387 ft 433 kts 284°
2026-05-07 00:58 -32.11169 143.85921 36388 ft 433 kts 284°
2026-05-07 00:58 -32.09455 143.79155 36387 ft 433 kts 284°
2026-05-07 00:59 -32.06861 143.68943 36390 ft 434 kts 284°
2026-05-07 01:00 -32.05122 143.62118 36392 ft 435 kts 284°
2026-05-07 01:00 -32.03377 143.55292 36395 ft 435 kts 284°
2026-05-07 01:01 -32.01631 143.48474 36388 ft 434 kts 284°
2026-05-07 01:01 -31.99879 143.41654 36398 ft 435 kts 284°
2026-05-07 01:02 -31.98121 143.34826 36400 ft 435 kts 284°
2026-05-07 01:02 -31.96359 143.28003 36401 ft 435 kts 284°
2026-05-07 01:03 -31.94605 143.21225 36399 ft 435 kts 284°
2026-05-07 01:03 -31.92838 143.14416 36405 ft 434 kts 284°
2026-05-07 01:04 -31.91070 143.07614 36409 ft 434 kts 284°
2026-05-07 01:04 -31.89297 143.00814 36400 ft 434 kts 284°
2026-05-07 01:05 -31.87534 142.94065 36411 ft 434 kts 284°
2026-05-07 01:05 -31.85755 142.87274 36407 ft 435 kts 284°
2026-05-07 01:06 -31.83968 142.80468 36409 ft 435 kts 284°
2026-05-07 01:06 -31.82183 142.73684 36407 ft 435 kts 284°
2026-05-07 01:07 -31.80391 142.66892 36411 ft 435 kts 285°
2026-05-07 01:07 -31.78594 142.60100 36422 ft 435 kts 284°
2026-05-07 01:08 -31.76786 142.53276 36415 ft 440 kts 284°
2026-05-07 01:08 -31.74972 142.46449 36415 ft 440 kts 285°
2026-05-07 01:09 -31.73148 142.39604 36417 ft 439 kts 285°
2026-05-07 01:09 -31.71318 142.32751 36417 ft 439 kts 285°
2026-05-07 01:10 -31.69487 142.25911 36414 ft 439 kts 285°
2026-05-07 01:10 -31.67645 142.19046 36415 ft 440 kts 285°
2026-05-07 01:11 -31.65803 142.12197 36418 ft 440 kts 285°
2026-05-07 01:11 -31.63969 142.05394 36421 ft 440 kts 285°
2026-05-07 01:12 -31.62116 141.98537 36426 ft 440 kts 285°
2026-05-07 01:12 -31.60259 141.91682 36412 ft 440 kts 285°
2026-05-07 01:13 -31.58402 141.84839 36433 ft 441 kts 285°
2026-05-07 01:13 -31.56540 141.77997 36418 ft 440 kts 285°
2026-05-07 01:14 -31.54672 141.71151 36420 ft 440 kts 285°
2026-05-07 01:14 -31.52802 141.64313 36420 ft 440 kts 285°
2026-05-07 01:15 -31.50927 141.57472 36430 ft 440 kts 285°
2026-05-07 01:15 -31.49063 141.50685 36428 ft 440 kts 285°
2026-05-07 01:16 -31.47181 141.43851 36420 ft 440 kts 285°
2026-05-07 01:16 -31.45297 141.37025 36420 ft 440 kts 285°
2026-05-07 01:17 -31.43409 141.30200 36430 ft 441 kts 286°
2026-05-07 01:17 -31.41511 141.23353 36432 ft 442 kts 286°
2026-05-07 01:18 -31.39608 141.16507 36427 ft 442 kts 286°
2026-05-07 01:18 -31.37703 141.09668 36417 ft 442 kts 286°
2026-05-07 01:19 -31.35794 141.02829 36433 ft 442 kts 286°
2026-05-07 01:19 -31.33891 140.96043 36429 ft 442 kts 286°
2026-05-07 01:20 -31.31963 140.89219 36436 ft 442 kts 287°
2026-05-07 01:20 -31.30028 140.82388 36435 ft 442 kts 287°
2026-05-07 01:21 -31.28092 140.75565 36432 ft 443 kts 287°
2026-05-07 01:21 -31.26148 140.68728 36438 ft 443 kts 287°
2026-05-07 01:22 -31.24214 140.61938 36439 ft 443 kts 287°
2026-05-07 01:22 -31.22263 140.55105 36440 ft 443 kts 287°
2026-05-07 01:23 -31.20306 140.48266 36441 ft 443 kts 287°
2026-05-07 01:23 -31.18347 140.41434 36431 ft 443 kts 287°
2026-05-07 01:24 -31.16383 140.34605 36440 ft 444 kts 287°
2026-05-07 01:24 -31.14413 140.27767 36441 ft 444 kts 287°
2026-05-07 01:25 -31.12439 140.20930 36443 ft 444 kts 287°
2026-05-07 01:25 -31.10476 140.14148 36443 ft 444 kts 287°
2026-05-07 01:26 -31.08495 140.07318 36448 ft 444 kts 287°
2026-05-07 01:26 -31.06512 140.00497 36447 ft 444 kts 287°
2026-05-07 01:27 -31.04526 139.93681 36444 ft 444 kts 288°
2026-05-07 01:27 -31.02535 139.86862 36458 ft 444 kts 288°
2026-05-07 01:28 -31.00533 139.80021 36446 ft 446 kts 288°
2026-05-07 01:28 -30.98522 139.73164 36444 ft 447 kts 288°
2026-05-07 01:29 -30.96506 139.66305 36449 ft 448 kts 288°
2026-05-07 01:29 -30.94485 139.59445 36452 ft 448 kts 288°
2026-05-07 01:30 -30.92462 139.52596 36451 ft 448 kts 288°
2026-05-07 01:30 -30.90433 139.45736 36453 ft 448 kts 288°
2026-05-07 01:31 -30.88401 139.38885 36455 ft 448 kts 288°
2026-05-07 01:31 -30.86364 139.32033 36454 ft 448 kts 288°
2026-05-07 01:32 -30.84338 139.25231 36453 ft 448 kts 288°
2026-05-07 01:32 -30.82292 139.18374 36452 ft 448 kts 288°
2026-05-07 01:33 -30.80242 139.11521 36447 ft 448 kts 288°
2026-05-07 01:33 -30.78190 139.04680 36447 ft 448 kts 288°
2026-05-07 01:34 -30.76132 138.97831 36448 ft 448 kts 288°
2026-05-07 01:34 -30.74087 138.91039 36445 ft 448 kts 288°
2026-05-07 01:35 -30.72024 138.84201 36437 ft 448 kts 288°
2026-05-07 01:35 -30.69957 138.77366 36442 ft 448 kts 288°
2026-05-07 01:36 -30.67888 138.70542 36439 ft 448 kts 288°
2026-05-07 01:36 -30.65823 138.63744 36436 ft 448 kts 289°
2026-05-07 01:37 -30.63746 138.56921 36434 ft 448 kts 289°
2026-05-07 01:37 -30.61664 138.50093 36434 ft 448 kts 289°
2026-05-07 01:38 -30.59461 138.43326 36438 ft 449 kts 293°
2026-05-07 01:38 -30.56880 138.36735 36428 ft 448 kts 294°
2026-05-07 01:39 -30.54240 138.30188 36431 ft 448 kts 294°
2026-05-07 01:39 -30.51586 138.23638 36440 ft 448 kts 294°
2026-05-07 01:40 -30.48938 138.17092 36431 ft 449 kts 294°
2026-05-07 01:40 -30.46301 138.10578 36433 ft 449 kts 294°
2026-05-07 01:41 -30.43647 138.04029 36430 ft 449 kts 294°
2026-05-07 01:41 -30.40988 137.97483 36428 ft 449 kts 294°
2026-05-07 01:42 -30.38327 137.90941 36427 ft 449 kts 294°
2026-05-07 01:42 -30.36093 137.85459 36428 ft 449 kts 294°
2026-05-07 01:43 -30.33440 137.78959 36444 ft 449 kts 294°
2026-05-07 01:43 -30.30765 137.72417 36443 ft 449 kts 294°
2026-05-07 01:44 -30.28085 137.65873 36427 ft 450 kts 294°
2026-05-07 01:44 -30.25402 137.59336 36440 ft 450 kts 294°
2026-05-07 01:45 -30.22717 137.52802 36438 ft 450 kts 295°
2026-05-07 01:45 -30.20027 137.46270 36438 ft 450 kts 295°
2026-05-07 01:46 -30.17334 137.39741 36441 ft 450 kts 295°
2026-05-07 01:46 -30.14636 137.33210 36440 ft 450 kts 295°
2026-05-07 01:47 -30.11931 137.26677 36439 ft 451 kts 295°
2026-05-07 01:47 -30.09222 137.20144 36439 ft 451 kts 295°
2026-05-07 01:48 -30.06529 137.13660 36439 ft 451 kts 295°
2026-05-07 01:48 -30.03814 137.07135 36438 ft 451 kts 295°
2026-05-07 01:49 -30.01096 137.00616 36437 ft 451 kts 295°
2026-05-07 01:49 -29.98371 136.94088 36439 ft 451 kts 295°
2026-05-07 01:50 -29.95642 136.87564 36439 ft 452 kts 295°
2026-05-07 01:50 -29.92907 136.81037 36439 ft 452 kts 295°
2026-05-07 01:51 -29.90190 136.74562 36439 ft 452 kts 295°
2026-05-07 01:51 -29.87450 136.68044 36438 ft 452 kts 295°
2026-05-07 01:52 -29.84703 136.61522 36440 ft 452 kts 295°
2026-05-07 01:52 -29.81952 136.55000 36440 ft 452 kts 295°
2026-05-07 01:53 -29.79194 136.48476 36442 ft 453 kts 295°
2026-05-07 01:53 -29.76434 136.41955 36441 ft 453 kts 295°
2026-05-07 01:54 -29.73673 136.35443 36437 ft 453 kts 295°
2026-05-07 01:54 -29.70908 136.28933 36442 ft 453 kts 295°
2026-05-07 01:55 -29.68132 136.22410 36445 ft 453 kts 295°
2026-05-07 01:55 -29.65364 136.15947 36444 ft 453 kts 296°
2026-05-07 01:56 -29.62571 136.09452 36440 ft 454 kts 296°
2026-05-07 01:56 -29.59771 136.02947 36442 ft 454 kts 296°
2026-05-07 01:57 -29.56967 135.96443 36442 ft 454 kts 296°
2026-05-07 01:57 -29.54156 135.89929 36447 ft 455 kts 296°
2026-05-07 01:58 -29.51345 135.83429 36443 ft 455 kts 296°
2026-05-07 01:58 -29.48531 135.76930 36442 ft 455 kts 296°
2026-05-07 01:59 -29.45709 135.70425 36447 ft 455 kts 296°
2026-05-07 01:59 -29.42900 135.63960 36443 ft 455 kts 296°
2026-05-07 02:00 -29.40069 135.57456 36439 ft 455 kts 296°
2026-05-07 02:00 -29.37237 135.50960 36446 ft 455 kts 296°
2026-05-07 02:01 -29.34402 135.44470 36448 ft 455 kts 296°
2026-05-07 02:01 -29.31561 135.37975 36441 ft 455 kts 296°
2026-05-07 02:02 -29.28714 135.31476 36443 ft 456 kts 296°
2026-05-07 02:02 -29.25861 135.24978 36446 ft 457 kts 296°
2026-05-07 02:03 -29.23022 135.18518 36446 ft 457 kts 296°
2026-05-07 02:03 -29.20162 135.12025 36446 ft 457 kts 296°
2026-05-07 02:04 -29.17301 135.05538 36447 ft 457 kts 296°
2026-05-07 02:04 -29.14439 134.99060 36449 ft 457 kts 296°
2026-05-07 02:05 -29.11559 134.92551 36433 ft 458 kts 296°
2026-05-07 02:05 -29.08676 134.86048 36442 ft 458 kts 296°
2026-05-07 02:06 -29.05795 134.79560 36445 ft 458 kts 297°
2026-05-07 02:06 -29.02910 134.73072 36445 ft 458 kts 297°
2026-05-07 02:07 -29.00041 134.66633 36446 ft 457 kts 297°
2026-05-07 02:07 -28.95706 134.56920 36441 ft 457 kts 297°
2026-05-07 02:08 -28.92803 134.50432 36442 ft 458 kts 297°
2026-05-07 02:08 -28.89903 134.43959 36440 ft 458 kts 297°
2026-05-07 02:09 -28.87019 134.37534 36450 ft 458 kts 297°
2026-05-07 02:09 -28.84108 134.31057 36445 ft 458 kts 297°
2026-05-07 02:10 -28.81197 134.24593 36436 ft 458 kts 297°
2026-05-07 02:10 -28.78277 134.18119 36448 ft 459 kts 297°
2026-05-07 02:11 -28.75351 134.11642 36446 ft 459 kts 297°
2026-05-07 02:11 -28.72427 134.05180 36446 ft 458 kts 297°
2026-05-07 02:12 -28.69517 133.98760 36448 ft 459 kts 297°
2026-05-07 02:12 -28.66586 133.92302 36445 ft 459 kts 297°
2026-05-07 02:13 -28.63650 133.85844 36447 ft 459 kts 297°
2026-05-07 02:13 -28.60714 133.79398 36450 ft 459 kts 297°
2026-05-07 02:14 -28.57766 133.72933 36448 ft 460 kts 297°
2026-05-07 02:14 -28.54817 133.66479 36448 ft 459 kts 297°
2026-05-07 02:15 -28.51866 133.60029 36451 ft 459 kts 297°
2026-05-07 02:15 -28.48914 133.53588 36449 ft 459 kts 297°
2026-05-07 02:16 -28.45956 133.47145 36452 ft 459 kts 297°
2026-05-07 02:16 -28.43017 133.40752 36452 ft 459 kts 297°
2026-05-07 02:17 -28.40060 133.34330 36449 ft 459 kts 297°
2026-05-07 02:17 -28.37095 133.27901 36449 ft 459 kts 297°
2026-05-07 02:18 -28.34123 133.21468 36458 ft 459 kts 297°
2026-05-07 02:18 -28.31153 133.15048 36451 ft 459 kts 297°
2026-05-07 02:19 -28.28177 133.08626 36454 ft 459 kts 297°
2026-05-07 02:19 -28.25216 133.02246 36460 ft 459 kts 297°
2026-05-07 02:20 -28.22233 132.95830 36452 ft 460 kts 297°
2026-05-07 02:20 -28.19245 132.89412 36449 ft 459 kts 297°
2026-05-07 02:21 -28.16260 132.83010 36452 ft 459 kts 297°
2026-05-07 02:21 -28.13270 132.76608 36451 ft 459 kts 297°
2026-05-07 02:22 -28.10293 132.70243 36446 ft 459 kts 297°
2026-05-07 02:22 -28.07301 132.63856 36446 ft 459 kts 297°
2026-05-07 02:23 -28.04303 132.57466 36450 ft 460 kts 297°
2026-05-07 02:23 -28.01299 132.51072 36449 ft 461 kts 297°
2026-05-07 02:24 -27.98286 132.44672 36452 ft 461 kts 297°
2026-05-07 02:24 -27.95273 132.38280 36448 ft 460 kts 297°
2026-05-07 02:25 -27.92259 132.31896 36447 ft 460 kts 297°
2026-05-07 02:25 -27.89240 132.25510 36446 ft 460 kts 297°
2026-05-07 02:26 -27.86238 132.19171 36457 ft 460 kts 297°
2026-05-07 02:26 -27.83208 132.12782 36446 ft 461 kts 297°
2026-05-07 02:27 -27.80177 132.06400 36449 ft 461 kts 297°
2026-05-07 02:27 -27.77673 132.01136 36446 ft 461 kts 297°
2026-05-07 02:28 -27.74636 131.94761 36445 ft 462 kts 297°
2026-05-07 02:28 -27.71590 131.88375 36440 ft 461 kts 297°
2026-05-07 02:29 -27.68550 131.82012 36448 ft 461 kts 297°
2026-05-07 02:29 -27.65503 131.75646 36450 ft 461 kts 297°
2026-05-07 02:30 -27.62447 131.69271 36444 ft 463 kts 297°
2026-05-07 02:30 -27.59381 131.62884 36442 ft 462 kts 297°
2026-05-07 02:31 -27.56323 131.56524 36444 ft 461 kts 297°
2026-05-07 02:31 -27.53259 131.50161 36445 ft 463 kts 297°
2026-05-07 02:32 -27.50176 131.43768 36441 ft 463 kts 298°
2026-05-07 02:32 -27.47114 131.37429 36434 ft 463 kts 297°
2026-05-07 02:33 -27.44022 131.31036 36445 ft 462 kts 298°
2026-05-07 02:33 -27.40939 131.24672 36443 ft 463 kts 298°
2026-05-07 02:34 -27.37850 131.18305 36441 ft 463 kts 298°
2026-05-07 02:34 -27.34754 131.11933 36434 ft 463 kts 298°
2026-05-07 02:35 -27.31677 131.05609 36438 ft 463 kts 298°
2026-05-07 02:35 -27.28578 130.99251 36442 ft 463 kts 298°
2026-05-07 02:36 -27.25484 130.92910 36436 ft 463 kts 298°
2026-05-07 02:36 -27.22378 130.86554 36438 ft 464 kts 298°
2026-05-07 02:37 -27.19264 130.80193 36435 ft 463 kts 298°
2026-05-07 02:37 -27.16157 130.73856 36433 ft 463 kts 298°
2026-05-07 02:38 -27.13050 130.67526 36433 ft 463 kts 298°
2026-05-07 02:38 -27.09938 130.61196 36433 ft 463 kts 298°
2026-05-07 02:39 -27.06847 130.54919 36431 ft 461 kts 298°
2026-05-07 02:39 -27.03748 130.48633 36430 ft 460 kts 298°
2026-05-07 02:40 -27.00646 130.42354 36431 ft 461 kts 298°
2026-05-07 02:40 -26.97538 130.36067 36429 ft 462 kts 298°
2026-05-07 02:41 -26.94415 130.29761 36419 ft 462 kts 298°
2026-05-07 02:41 -26.91302 130.23486 36427 ft 460 kts 298°
2026-05-07 02:42 -26.88190 130.17220 36428 ft 460 kts 298°
2026-05-07 02:42 -26.85076 130.10958 36427 ft 461 kts 298°
2026-05-07 02:43 -26.81953 130.04689 36423 ft 460 kts 298°
2026-05-07 02:43 -26.78844 129.98455 36416 ft 462 kts 298°
2026-05-07 02:44 -26.75694 129.92150 36420 ft 464 kts 298°
2026-05-07 02:44 -26.72543 129.85851 36415 ft 464 kts 298°
2026-05-07 02:45 -26.69388 129.79553 36410 ft 464 kts 298°
2026-05-07 02:45 -26.66221 129.73240 36411 ft 465 kts 298°
2026-05-07 02:46 -26.63062 129.66953 36414 ft 463 kts 298°
2026-05-07 02:46 -26.59920 129.60709 36409 ft 463 kts 298°
2026-05-07 02:47 -26.56757 129.54431 36412 ft 464 kts 298°
2026-05-07 02:47 -26.53582 129.48137 36410 ft 465 kts 298°
2026-05-07 02:48 -26.50403 129.41847 36405 ft 463 kts 298°
2026-05-07 02:48 -26.47260 129.35636 36403 ft 462 kts 298°
2026-05-07 02:49 -26.44088 129.29374 36401 ft 463 kts 298°
2026-05-07 02:49 -26.40903 129.23097 36400 ft 464 kts 298°
2026-05-07 02:50 -26.37723 129.16838 36393 ft 464 kts 298°
2026-05-07 02:50 -26.34567 129.10637 36403 ft 462 kts 298°
2026-05-07 02:51 -26.31387 129.04396 36393 ft 463 kts 298°
2026-05-07 02:51 -26.28201 128.98152 36395 ft 463 kts 298°
2026-05-07 02:52 -26.25015 128.91920 36392 ft 463 kts 298°
2026-05-07 02:52 -26.21821 128.85683 36392 ft 463 kts 298°
2026-05-07 02:53 -26.18631 128.79458 36389 ft 463 kts 298°
2026-05-07 02:53 -26.15453 128.73264 36392 ft 463 kts 298°
2026-05-07 02:54 -26.12257 128.67046 36387 ft 463 kts 298°
2026-05-07 02:54 -26.09051 128.60818 36376 ft 464 kts 298°
2026-05-07 02:55 -26.05843 128.54594 36384 ft 463 kts 298°
2026-05-07 02:55 -26.02638 128.48385 36382 ft 462 kts 298°
2026-05-07 02:56 -25.99431 128.42180 36388 ft 462 kts 298°
2026-05-07 02:56 -25.96248 128.36030 36385 ft 462 kts 298°
2026-05-07 02:57 -25.93037 128.29834 36378 ft 462 kts 298°
2026-05-07 02:57 -25.89841 128.23676 36395 ft 459 kts 298°
2026-05-07 02:58 -25.86649 128.17535 36382 ft 459 kts 298°
2026-05-07 02:58 -25.83442 128.11370 36376 ft 461 kts 298°
2026-05-07 02:59 -25.80231 128.05208 36380 ft 461 kts 298°
2026-05-07 02:59 -25.77018 127.99052 36374 ft 459 kts 298°
2026-05-07 03:00 -25.73818 127.92927 36373 ft 458 kts 298°
2026-05-07 03:00 -25.70637 127.86847 36374 ft 460 kts 298°
2026-05-07 03:01 -25.67423 127.80712 36370 ft 460 kts 298°
2026-05-07 03:01 -25.64205 127.74577 36360 ft 460 kts 298°
2026-05-07 03:02 -25.60989 127.68455 36369 ft 459 kts 298°
2026-05-07 03:02 -25.57773 127.62342 36364 ft 459 kts 298°
2026-05-07 03:03 -25.54557 127.56236 36371 ft 459 kts 298°
2026-05-07 03:03 -25.51335 127.50127 36368 ft 459 kts 298°
2026-05-07 03:04 -25.48133 127.44063 36374 ft 460 kts 298°
2026-05-07 03:04 -25.44900 127.37947 36357 ft 459 kts 298°
2026-05-07 03:05 -25.41681 127.31870 36363 ft 458 kts 298°
2026-05-07 03:05 -25.38459 127.25792 36360 ft 457 kts 298°
2026-05-07 03:06 -25.35239 127.19726 36366 ft 459 kts 298°
2026-05-07 03:06 -25.31994 127.13620 36356 ft 460 kts 298°
2026-05-07 03:07 -25.28748 127.07523 36350 ft 460 kts 298°
2026-05-07 03:07 -25.25506 127.01439 36352 ft 460 kts 298°
2026-05-07 03:08 -25.22278 126.95390 36357 ft 460 kts 298°
2026-05-07 03:08 -25.19020 126.89292 36346 ft 461 kts 298°
2026-05-07 03:09 -25.15754 126.83189 36351 ft 461 kts 298°
2026-05-07 03:09 -25.13042 126.78126 36350 ft 460 kts 298°
2026-05-07 03:10 -25.09784 126.72052 36348 ft 459 kts 298°
2026-05-07 03:10 -25.06522 126.65977 36343 ft 460 kts 298°
2026-05-07 03:11 -25.03235 126.59862 36353 ft 460 kts 298°
2026-05-07 03:11 -24.99970 126.53798 36337 ft 460 kts 298°
2026-05-07 03:12 -24.96676 126.47688 36344 ft 459 kts 298°
2026-05-07 03:12 -24.93415 126.41648 36339 ft 459 kts 298°
2026-05-07 03:13 -24.90145 126.35596 36340 ft 459 kts 298°
2026-05-07 03:13 -24.86878 126.29560 36342 ft 459 kts 298°
2026-05-07 03:14 -24.83602 126.23513 36335 ft 459 kts 298°
2026-05-07 03:15 -24.78711 126.14503 36336 ft 458 kts 298°
2026-05-07 03:15 -24.75445 126.08494 36331 ft 457 kts 298°
2026-05-07 03:16 -24.72177 126.02488 36331 ft 457 kts 298°
2026-05-07 03:16 -24.68905 125.96484 36326 ft 458 kts 298°
2026-05-07 03:17 -24.65625 125.90472 36327 ft 458 kts 298°
2026-05-07 03:17 -24.62356 125.84490 36326 ft 455 kts 298°
2026-05-07 03:18 -24.59095 125.78526 36321 ft 455 kts 298°
2026-05-07 03:18 -24.55836 125.72576 36324 ft 455 kts 298°
2026-05-07 03:19 -24.52561 125.66602 36315 ft 456 kts 298°
2026-05-07 03:19 -24.49302 125.60665 36319 ft 456 kts 298°
2026-05-07 03:20 -24.46024 125.54703 36311 ft 455 kts 298°
2026-05-07 03:20 -24.42750 125.48755 36328 ft 455 kts 297°
2026-05-07 03:21 -24.39472 125.42805 36324 ft 455 kts 297°
2026-05-07 03:21 -24.36192 125.36860 36311 ft 455 kts 298°
2026-05-07 03:22 -24.32903 125.30907 36298 ft 456 kts 298°
2026-05-07 03:22 -24.29620 125.24971 36303 ft 455 kts 297°
2026-05-07 03:23 -24.26352 125.19070 36302 ft 455 kts 297°
2026-05-07 03:23 -24.23042 125.13099 36304 ft 455 kts 297°
2026-05-07 03:24 -24.19768 125.07199 36304 ft 456 kts 297°
2026-05-07 03:24 -24.16472 125.01269 36298 ft 455 kts 297°
2026-05-07 03:25 -24.13173 124.95340 36275 ft 456 kts 297°
2026-05-07 03:25 -24.09873 124.89418 36294 ft 456 kts 297°
2026-05-07 03:26 -24.06573 124.83501 36299 ft 455 kts 297°
2026-05-07 03:26 -24.03272 124.77591 36290 ft 455 kts 297°
2026-05-07 03:27 -23.99966 124.71677 36291 ft 455 kts 297°
2026-05-07 03:27 -23.96657 124.65766 36284 ft 456 kts 297°
2026-05-07 03:28 -23.93341 124.59851 36285 ft 455 kts 297°
2026-05-07 03:28 -23.90049 124.53985 36279 ft 455 kts 297°
2026-05-07 03:29 -23.86741 124.48096 36282 ft 455 kts 297°
2026-05-07 03:29 -23.83426 124.42201 36277 ft 455 kts 297°
2026-05-07 03:30 -23.80106 124.36306 36278 ft 456 kts 297°
2026-05-07 03:30 -23.76783 124.30412 36258 ft 455 kts 297°
2026-05-07 03:31 -23.73462 124.24532 36275 ft 454 kts 296°
2026-05-07 03:31 -23.70152 124.18674 36274 ft 454 kts 296°
2026-05-07 03:32 -23.66835 124.12809 36274 ft 454 kts 296°
2026-05-07 03:32 -23.63511 124.06939 36271 ft 455 kts 296°
2026-05-07 03:33 -23.60182 124.01069 36270 ft 455 kts 296°
2026-05-07 03:33 -23.56851 123.95203 36264 ft 455 kts 296°
2026-05-07 03:34 -23.53515 123.89336 36266 ft 455 kts 296°
2026-05-07 03:34 -23.50192 123.83498 36261 ft 458 kts 296°
2026-05-07 03:35 -23.46807 123.77551 36213 ft 465 kts 296°
2026-05-07 03:35 -23.43374 123.71532 36195 ft 469 kts 296°
2026-05-07 03:36 -23.39914 123.65482 36173 ft 471 kts 296°
2026-05-07 03:36 -23.36447 123.59426 36170 ft 471 kts 296°
2026-05-07 03:37 -23.32980 123.53373 36169 ft 471 kts 296°
2026-05-07 03:37 -23.29514 123.47328 36167 ft 471 kts 296°
2026-05-07 03:38 -23.26044 123.41284 36171 ft 471 kts 296°
2026-05-07 03:38 -23.22591 123.35276 36172 ft 471 kts 296°
2026-05-07 03:39 -23.19120 123.29246 36141 ft 470 kts 296°
2026-05-07 03:39 -23.15630 123.23187 36142 ft 469 kts 296°
2026-05-07 03:40 -23.12160 123.17172 36140 ft 469 kts 296°
2026-05-07 03:40 -23.08710 123.11196 36144 ft 469 kts 296°
2026-05-07 03:41 -23.05242 123.05197 36153 ft 469 kts 296°
2026-05-07 03:41 -23.01767 122.99193 36131 ft 469 kts 296°
2026-05-07 03:42 -22.98292 122.93199 36134 ft 468 kts 296°
2026-05-07 03:42 -22.94823 122.87220 36143 ft 468 kts 295°
2026-05-07 03:43 -22.91351 122.81242 36160 ft 468 kts 295°
2026-05-07 03:43 -22.87882 122.75275 36169 ft 468 kts 295°
2026-05-07 03:44 -22.84405 122.69301 36177 ft 468 kts 295°
2026-05-07 03:44 -22.80925 122.63332 36158 ft 468 kts 295°
2026-05-07 03:45 -22.78031 122.58373 36144 ft 468 kts 295°
2026-05-07 03:45 -22.73984 122.51444 36151 ft 468 kts 295°
2026-05-07 03:46 -22.71071 122.46461 36174 ft 467 kts 295°
2026-05-07 03:46 -22.67587 122.40511 36180 ft 467 kts 295°
2026-05-07 03:47 -22.64102 122.34564 36189 ft 468 kts 295°
2026-05-07 03:47 -22.60635 122.28658 36147 ft 467 kts 295°
2026-05-07 03:48 -22.57149 122.22724 36152 ft 467 kts 295°
2026-05-07 03:48 -22.53666 122.16800 36161 ft 467 kts 295°
2026-05-07 03:49 -22.50176 122.10871 36163 ft 467 kts 295°
2026-05-07 03:49 -22.46662 122.04909 36163 ft 467 kts 294°
2026-05-07 03:50 -22.43169 121.98989 36169 ft 467 kts 294°
2026-05-07 03:50 -22.39678 121.93079 36147 ft 466 kts 294°
2026-05-07 03:51 -22.36184 121.87171 36152 ft 466 kts 294°
2026-05-07 03:51 -22.32701 121.81299 36159 ft 466 kts 294°
2026-05-07 03:52 -22.29201 121.75401 36153 ft 466 kts 294°
2026-05-07 03:52 -22.25701 121.69506 36172 ft 466 kts 294°
2026-05-07 03:53 -22.22193 121.63606 36143 ft 466 kts 294°
2026-05-07 03:53 -22.18688 121.57719 36149 ft 466 kts 294°
2026-05-07 03:54 -22.15179 121.51834 36143 ft 466 kts 294°
2026-05-07 03:54 -22.11692 121.45991 36149 ft 466 kts 294°
2026-05-07 03:55 -22.08186 121.40122 36157 ft 465 kts 294°
2026-05-07 03:55 -22.04671 121.34244 36163 ft 465 kts 294°
2026-05-07 03:56 -22.01161 121.28382 36152 ft 465 kts 294°
2026-05-07 03:56 -21.97649 121.22522 36148 ft 465 kts 294°
2026-05-07 03:57 -21.94157 121.16702 36166 ft 465 kts 294°
2026-05-07 03:57 -21.90643 121.10850 36174 ft 465 kts 294°
2026-05-07 03:58 -21.87126 121.05003 36181 ft 465 kts 294°
2026-05-07 03:58 -21.83600 120.99144 36195 ft 465 kts 294°
2026-05-07 03:59 -21.80073 120.93292 36169 ft 465 kts 293°
2026-05-07 03:59 -21.76549 120.87452 36175 ft 465 kts 293°
2026-05-07 04:00 -21.73025 120.81615 36177 ft 465 kts 293°
2026-05-07 04:00 -21.69497 120.75779 36179 ft 465 kts 293°
2026-05-07 04:01 -21.65987 120.69981 36180 ft 465 kts 294°
2026-05-07 04:01 -21.62455 120.64151 36179 ft 465 kts 294°
2026-05-07 04:02 -21.58922 120.58325 36187 ft 465 kts 294°
2026-05-07 04:02 -21.55381 120.52493 36193 ft 465 kts 294°
2026-05-07 04:03 -21.51844 120.46673 36193 ft 465 kts 294°
2026-05-07 04:03 -21.48303 120.40853 36195 ft 465 kts 294°
2026-05-07 04:04 -21.44755 120.35029 36204 ft 465 kts 293°
2026-05-07 04:04 -21.41208 120.29213 36225 ft 465 kts 293°
2026-05-07 04:05 -21.37690 120.23452 36198 ft 464 kts 293°
2026-05-07 04:05 -21.34148 120.17654 36222 ft 464 kts 293°
2026-05-07 04:06 -21.30604 120.11857 36233 ft 464 kts 293°
2026-05-07 04:06 -21.27059 120.06066 36220 ft 463 kts 293°
2026-05-07 04:07 -21.23518 120.00289 36227 ft 463 kts 293°
2026-05-07 04:07 -21.19997 119.94549 36238 ft 463 kts 293°
2026-05-07 04:08 -21.16457 119.88786 36228 ft 463 kts 293°
2026-05-07 04:08 -21.12910 119.83017 36243 ft 463 kts 293°
2026-05-07 04:09 -21.09387 119.77291 36263 ft 463 kts 293°
2026-05-07 04:09 -21.05832 119.71521 36280 ft 463 kts 293°
2026-05-07 04:10 -21.02284 119.65769 36296 ft 463 kts 293°
2026-05-07 04:10 -20.98753 119.60048 36316 ft 463 kts 293°
2026-05-07 04:11 -20.95205 119.54308 36347 ft 463 kts 293°
2026-05-07 04:11 -20.91651 119.48561 36328 ft 463 kts 293°
2026-05-07 04:12 -20.88093 119.42818 36374 ft 463 kts 293°
2026-05-07 04:12 -20.84534 119.37076 36392 ft 463 kts 293°
2026-05-07 04:13 -20.80971 119.31333 36416 ft 463 kts 293°
2026-05-07 04:13 -20.77407 119.25593 36437 ft 463 kts 293°
2026-05-07 04:14 -20.73847 119.19867 36446 ft 463 kts 293°
2026-05-07 04:14 -20.70279 119.14132 36422 ft 463 kts 293°
2026-05-07 04:15 -20.66702 119.08391 36438 ft 464 kts 293°
2026-05-07 04:15 -20.63126 119.02657 36457 ft 464 kts 293°
2026-05-07 04:16 -20.59566 118.96953 36483 ft 464 kts 293°
2026-05-07 04:16 -20.55981 118.91216 36493 ft 464 kts 294°
2026-05-07 04:17 -20.52399 118.85489 36507 ft 464 kts 294°
2026-05-07 04:17 -20.48812 118.79759 36498 ft 464 kts 294°
2026-05-07 04:18 -20.45220 118.74027 36519 ft 464 kts 294°
2026-05-07 04:18 -20.41648 118.68334 36536 ft 464 kts 294°
2026-05-07 04:19 -20.38055 118.62612 36537 ft 464 kts 294°
2026-05-07 04:19 -20.34683 118.56788 36553 ft 458 kts 290°
2026-05-07 04:20 -20.31607 118.50805 36581 ft 457 kts 289°
2026-05-07 04:20 -20.28549 118.44892 36592 ft 458 kts 290°
2026-05-07 04:21 -20.23817 118.35983 36585 ft 459 kts 290°
2026-05-07 04:21 -20.20669 118.30112 36604 ft 459 kts 290°
2026-05-07 04:22 -20.17497 118.24201 36618 ft 459 kts 290°
2026-05-07 04:22 -20.14325 118.18292 36634 ft 459 kts 290°
2026-05-07 04:23 -20.11153 118.12387 36657 ft 459 kts 290°
2026-05-07 04:23 -20.07980 118.06482 36654 ft 460 kts 290°
2026-05-07 04:24 -20.04801 118.00574 36635 ft 460 kts 290°
2026-05-07 04:24 -20.02151 117.95652 36647 ft 461 kts 291°
2026-05-07 04:25 -19.98956 117.89728 36667 ft 461 kts 291°
2026-05-07 04:25 -19.95760 117.83807 36684 ft 462 kts 291°
2026-05-07 04:26 -19.92559 117.77883 36697 ft 462 kts 291°
2026-05-07 04:26 -19.89356 117.71960 36707 ft 462 kts 291°
2026-05-07 04:27 -19.86169 117.66075 36717 ft 462 kts 291°
2026-05-07 04:27 -19.82965 117.60161 36727 ft 462 kts 291°
2026-05-07 04:28 -19.79755 117.54242 36727 ft 463 kts 291°
2026-05-07 04:28 -19.76535 117.48312 36740 ft 463 kts 291°
2026-05-07 04:29 -19.73295 117.42352 36738 ft 463 kts 291°
2026-05-07 04:29 -19.70069 117.36423 36751 ft 464 kts 291°
2026-05-07 04:30 -19.66836 117.30487 36755 ft 464 kts 291°
2026-05-07 04:30 -19.63603 117.24559 36758 ft 464 kts 291°
2026-05-07 04:31 -19.60372 117.18638 36775 ft 464 kts 291°
2026-05-07 04:31 -19.57133 117.12705 36753 ft 465 kts 292°
2026-05-07 04:32 -19.53881 117.06756 36790 ft 466 kts 292°
2026-05-07 04:32 -19.50625 117.00810 36808 ft 467 kts 292°
2026-05-07 04:33 -19.47360 116.94853 36827 ft 467 kts 292°
2026-05-07 04:33 -19.44090 116.88893 36834 ft 467 kts 292°
2026-05-07 04:34 -19.40844 116.82980 36834 ft 467 kts 292°
2026-05-07 04:34 -19.37569 116.77021 36847 ft 468 kts 292°
2026-05-07 04:35 -19.34290 116.71060 36858 ft 468 kts 292°
2026-05-07 04:35 -19.31011 116.65106 36877 ft 468 kts 292°
2026-05-07 04:36 -19.27727 116.59149 36877 ft 468 kts 292°
2026-05-07 04:36 -19.24465 116.53236 36879 ft 468 kts 292°
2026-05-07 04:37 -19.21176 116.47280 36882 ft 468 kts 292°
2026-05-07 04:37 -19.17880 116.41320 36893 ft 469 kts 292°
2026-05-07 04:38 -19.14587 116.35368 36911 ft 469 kts 292°
2026-05-07 04:38 -19.11290 116.29421 36892 ft 469 kts 293°
2026-05-07 04:39 -19.07983 116.23460 36902 ft 470 kts 293°
2026-05-07 04:39 -19.04664 116.17486 36911 ft 471 kts 293°
2026-05-07 04:40 -19.01363 116.11550 36920 ft 471 kts 293°
2026-05-07 04:40 -18.98035 116.05573 36925 ft 471 kts 293°
2026-05-07 04:41 -18.94687 115.99565 36931 ft 472 kts 293°
2026-05-07 04:41 -18.91373 115.93623 36921 ft 472 kts 293°
2026-05-07 04:42 -18.88040 115.87652 36927 ft 472 kts 293°
2026-05-07 04:42 -18.84697 115.81669 36920 ft 473 kts 294°
2026-05-07 04:43 -18.81346 115.75680 36943 ft 474 kts 294°
2026-05-07 04:43 -18.77984 115.69677 36953 ft 474 kts 294°
2026-05-07 04:44 -18.74628 115.63688 36957 ft 474 kts 294°
2026-05-07 04:44 -18.71260 115.57686 36965 ft 474 kts 294°
2026-05-07 04:45 -18.67917 115.51733 36978 ft 475 kts 294°
2026-05-07 04:45 -18.64546 115.45735 36994 ft 475 kts 294°
2026-05-07 04:46 -18.61173 115.39738 36979 ft 475 kts 294°
2026-05-07 04:46 -18.57795 115.33740 36996 ft 476 kts 294°
2026-05-07 04:47 -18.54402 115.27721 37008 ft 477 kts 294°
2026-05-07 04:47 -18.51010 115.21712 37023 ft 477 kts 294°
2026-05-07 04:48 -18.47616 115.15702 37036 ft 477 kts 294°
2026-05-07 04:48 -18.44212 115.09682 37050 ft 477 kts 294°
2026-05-07 04:49 -18.40816 115.03681 37075 ft 477 kts 294°
2026-05-07 04:49 -18.37438 114.97715 37062 ft 478 kts 295°
2026-05-07 04:50 -18.34027 114.91698 37071 ft 478 kts 295°
2026-05-07 04:50 -18.30611 114.85679 37093 ft 479 kts 295°
2026-05-07 04:51 -18.27188 114.79654 37105 ft 479 kts 295°
2026-05-07 04:51 -18.23764 114.73633 37113 ft 479 kts 295°
2026-05-07 04:52 -18.20360 114.67652 37143 ft 479 kts 295°
2026-05-07 04:52 -18.16913 114.61600 37155 ft 479 kts 295°
2026-05-07 04:53 -18.13485 114.55587 37159 ft 479 kts 295°
2026-05-07 04:53 -18.10074 114.49610 37153 ft 480 kts 296°
2026-05-07 04:54 -18.06632 114.43585 37173 ft 480 kts 296°
2026-05-07 04:54 -18.03188 114.37561 37186 ft 480 kts 296°
2026-05-07 04:55 -17.99742 114.31539 37204 ft 481 kts 296°
2026-05-07 04:55 -17.96295 114.25523 37215 ft 481 kts 296°
2026-05-07 04:56 -17.92845 114.19506 37225 ft 481 kts 296°
2026-05-07 04:56 -17.89365 114.13443 37238 ft 481 kts 296°
2026-05-07 04:57 -17.85932 114.07466 37234 ft 481 kts 296°
2026-05-07 04:57 -17.82469 114.01442 37258 ft 482 kts 296°
2026-05-07 04:58 -17.79005 113.95423 37275 ft 482 kts 296°
2026-05-07 04:58 -17.75536 113.89401 37293 ft 482 kts 296°
2026-05-07 04:59 -17.72066 113.83382 37311 ft 482 kts 296°
2026-05-07 04:59 -17.68610 113.77394 37329 ft 482 kts 296°
2026-05-07 05:00 -17.65119 113.71350 37343 ft 482 kts 296°
2026-05-07 05:00 -17.61656 113.65359 37362 ft 482 kts 296°
2026-05-07 05:01 -17.58738 113.60316 37370 ft 483 kts 296°
2026-05-07 05:01 -17.55271 113.54328 37393 ft 483 kts 296°
2026-05-07 05:02 -17.51757 113.48265 37418 ft 483 kts 296°
2026-05-07 05:02 -17.48269 113.42254 37447 ft 483 kts 296°
2026-05-07 05:03 -17.44793 113.36268 37463 ft 484 kts 296°
2026-05-07 05:03 -17.41294 113.30247 37482 ft 484 kts 296°
2026-05-07 05:04 -17.37784 113.24213 37519 ft 484 kts 296°
2026-05-07 05:04 -17.34280 113.18194 37519 ft 484 kts 296°
2026-05-07 05:05 -17.30765 113.12163 37540 ft 484 kts 296°
2026-05-07 05:05 -17.27252 113.06140 37551 ft 485 kts 296°
2026-05-07 05:06 -17.23749 113.00140 37589 ft 485 kts 296°
2026-05-07 05:06 -17.20229 112.94115 37616 ft 485 kts 296°
2026-05-07 05:07 -17.16701 112.88083 37641 ft 485 kts 296°
2026-05-07 05:07 -17.13173 112.82056 37663 ft 485 kts 296°
2026-05-07 05:08 -17.09650 112.76043 37682 ft 486 kts 296°
2026-05-07 05:08 -17.06135 112.70048 37698 ft 486 kts 296°
2026-05-07 05:09 -17.02596 112.64017 37719 ft 487 kts 296°
2026-05-07 05:09 -16.99052 112.57985 37760 ft 487 kts 296°
2026-05-07 05:10 -16.95506 112.51954 37778 ft 487 kts 296°
2026-05-07 05:10 -16.91960 112.45929 37795 ft 487 kts 296°
2026-05-07 05:11 -16.88404 112.39891 37811 ft 488 kts 296°
2026-05-07 05:11 -16.84847 112.33857 37847 ft 488 kts 296°
2026-05-07 05:12 -16.81286 112.27820 37865 ft 488 kts 296°
2026-05-07 05:12 -16.77743 112.21821 37881 ft 488 kts 296°
2026-05-07 05:13 -16.74177 112.15790 37912 ft 488 kts 296°
2026-05-07 05:13 -16.70610 112.09762 37927 ft 488 kts 296°
2026-05-07 05:14 -16.67036 112.03728 37948 ft 488 kts 296°
2026-05-07 05:14 -16.63465 111.97706 37970 ft 489 kts 297°
2026-05-07 05:15 -16.59890 111.91681 37987 ft 489 kts 297°
2026-05-07 05:15 -16.56303 111.85642 38024 ft 489 kts 297°
2026-05-07 05:16 -16.52722 111.79616 38024 ft 489 kts 297°
2026-05-07 05:16 -16.49142 111.73599 38028 ft 489 kts 297°
2026-05-07 05:17 -16.45550 111.67566 38043 ft 489 kts 297°
2026-05-07 05:17 -16.41962 111.61545 38055 ft 489 kts 297°
2026-05-07 05:18 -16.38390 111.55557 38068 ft 489 kts 297°
2026-05-07 05:18 -16.34795 111.49534 38093 ft 489 kts 297°
2026-05-07 05:19 -16.31202 111.43520 38108 ft 489 kts 297°
2026-05-07 05:19 -16.27604 111.37503 38116 ft 489 kts 297°
2026-05-07 05:20 -16.24006 111.31489 38118 ft 490 kts 297°
2026-05-07 05:20 -16.20398 111.25465 38139 ft 490 kts 297°
2026-05-07 05:21 -16.14984 111.16436 38168 ft 490 kts 297°
2026-05-07 05:22 -16.11371 111.10416 38186 ft 490 kts 297°
2026-05-07 05:22 -16.07759 111.04403 38193 ft 490 kts 297°
2026-05-07 05:23 -16.04143 110.98388 38203 ft 490 kts 297°
2026-05-07 05:23 -16.00527 110.92379 38209 ft 490 kts 297°
2026-05-07 05:24 -15.96907 110.86367 38205 ft 491 kts 298°
2026-05-07 05:24 -15.93305 110.80389 38238 ft 491 kts 298°
2026-05-07 05:25 -15.89670 110.74363 38251 ft 491 kts 298°
2026-05-07 05:25 -15.86048 110.68364 38263 ft 491 kts 298°
2026-05-07 05:26 -15.82418 110.62355 38276 ft 490 kts 298°
2026-05-07 05:26 -15.78789 110.56353 38290 ft 490 kts 298°
2026-05-07 05:27 -15.75174 110.50380 38302 ft 490 kts 298°
2026-05-07 05:27 -15.71543 110.44385 38316 ft 490 kts 298°
2026-05-07 05:28 -15.67918 110.38402 38319 ft 490 kts 298°
2026-05-07 05:28 -15.64284 110.32411 38347 ft 490 kts 298°
2026-05-07 05:29 -15.60649 110.26424 38362 ft 490 kts 298°
2026-05-07 05:29 -15.57017 110.20446 38370 ft 490 kts 298°
2026-05-07 05:30 -15.53382 110.14469 38383 ft 490 kts 298°
2026-05-07 05:30 -15.49775 110.08535 38395 ft 489 kts 298°
2026-05-07 05:31 -15.46164 110.02558 38404 ft 489 kts 298°
2026-05-07 05:31 -15.42551 109.96574 38417 ft 488 kts 298°
2026-05-07 05:32 -15.38941 109.90608 38428 ft 489 kts 298°
2026-05-07 05:32 -15.35341 109.84666 38445 ft 489 kts 298°
2026-05-07 05:33 -15.31716 109.78689 38459 ft 489 kts 298°
2026-05-07 05:33 -15.28093 109.72720 38485 ft 489 kts 298°
2026-05-07 05:34 -15.24468 109.66752 38501 ft 489 kts 298°
2026-05-07 05:34 -15.20849 109.60798 38510 ft 489 kts 298°
2026-05-07 05:35 -15.17219 109.54832 38522 ft 489 kts 298°
2026-05-07 05:35 -15.13595 109.48879 38531 ft 489 kts 298°
2026-05-07 05:36 -15.09967 109.42923 38528 ft 489 kts 299°
2026-05-07 05:36 -15.06358 109.37005 38542 ft 489 kts 299°
2026-05-07 05:37 -15.02730 109.31060 38577 ft 489 kts 299°
2026-05-07 05:37 -14.99093 109.25103 38593 ft 489 kts 299°
2026-05-07 05:38 -14.95454 109.19150 38607 ft 489 kts 299°
2026-05-07 05:38 -14.91817 109.13204 38624 ft 489 kts 299°
2026-05-07 05:39 -14.88180 109.07262 38628 ft 488 kts 299°
2026-05-07 05:39 -14.84566 109.01362 38638 ft 488 kts 299°
2026-05-07 05:40 -14.80913 108.95403 38642 ft 488 kts 299°
2026-05-07 05:40 -14.77301 108.89514 38670 ft 488 kts 299°
2026-05-07 05:41 -14.73660 108.83584 38681 ft 488 kts 299°
2026-05-07 05:41 -14.70025 108.77667 38688 ft 488 kts 299°
2026-05-07 05:42 -14.66383 108.71744 38700 ft 487 kts 299°
2026-05-07 05:42 -14.62749 108.65838 38720 ft 487 kts 299°
2026-05-07 05:43 -14.59120 108.59944 38728 ft 486 kts 299°
2026-05-07 05:43 -14.56105 108.55051 38733 ft 486 kts 299°
2026-05-07 05:44 -14.52468 108.49154 38737 ft 486 kts 299°
2026-05-07 05:44 -14.48239 108.42313 38760 ft 486 kts 299°
2026-05-07 05:45 -14.45173 108.37391 38757 ft 486 kts 299°
2026-05-07 05:45 -14.41537 108.31563 38769 ft 486 kts 300°
2026-05-07 05:46 -14.37879 108.25700 38803 ft 486 kts 300°
2026-05-07 05:46 -14.34219 108.19836 38810 ft 486 kts 300°
2026-05-07 05:47 -14.30565 108.13986 38820 ft 485 kts 300°
2026-05-07 05:47 -14.26910 108.08136 38844 ft 485 kts 300°
2026-05-07 05:48 -14.23248 108.02282 38860 ft 485 kts 300°
2026-05-07 05:48 -14.19580 107.96420 38865 ft 486 kts 300°
2026-05-07 05:49 -14.15915 107.90568 38889 ft 486 kts 300°
2026-05-07 05:49 -14.12248 107.84718 38909 ft 486 kts 300°
2026-05-07 05:50 -14.08597 107.78898 38942 ft 486 kts 300°
2026-05-07 05:50 -14.04929 107.73054 38959 ft 486 kts 300°